Hourly Data Report for August 14, 2022

TORONTO CITY
ONTARIO
Current Station Operator: ECCC - MSC

43°40'00.000" N
79°24'00.000" W
112.50 m
6158355
71508
XTO

Download Data

Hourly Data (August 2022)
Hourly Data Report for August 14, 2022
TIME
LST
Temp Definition
°C
Dew Point Definition
°C
Rel Hum Definition
%
Precip. Amount Definition
mm

Wind Dir Definition
10's deg

Wind Spd Definition
km/h
Visibility Definition
km
Stn Press Definition
kPa
Hmdx Definition


Wind Chill Definition


Weather Definition


00:00 19.8 12.1 61 0.0       100.51     LegendNANA
01:00 18.4 12.3 67 0.0       100.49     LegendNANA
02:00 18.2 11.7 66 0.0       100.44     LegendNANA
03:00 18.3 11.8 66 0.0       100.42     LegendNANA
04:00 18.0 10.9 63 0.0       100.40     LegendNANA
05:00 17.4 10.7 65 0.0       100.38     LegendNANA
06:00 18.3 11.2 63 0.0       100.39     LegendNANA
07:00 19.8 12.0 61 0.0       100.40     LegendNANA
08:00 21.2 13.8 63 0.0       100.42     LegendNANA
09:00 22.5 14.2 60 0.0       100.41 26   LegendNANA
10:00 23.1 12.9 53 0.0       100.42 26   LegendNANA
11:00 23.9 11.3 45 0.0       100.38 26   LegendNANA
12:00 24.2 11.2 44 0.0       100.35 26   LegendNANA
13:00 24.3 9.9 40 0.0       100.36 26   LegendNANA
14:00 25.2 9.2 36 0.0       100.34 26   LegendNANA
15:00 24.9 9.7 38 0.0       100.31 26   LegendNANA
16:00 24.8 8.0 34 0.0       100.27 25   LegendNANA
17:00 24.3 8.2 36 0.0       100.26 25   LegendNANA
18:00 23.7 8.4 38 0.0       100.24     LegendNANA
19:00 22.5 10.4 46 0.0       100.25     LegendNANA
20:00 21.9 12.8 56 0.0       100.26 25   LegendNANA
21:00 21.2 12.6 58 0.0       100.28     LegendNANA
22:00 20.8 13.8 64 0.0       100.29     LegendNANA
23:00 21.0 13.8 63 0.0       100.29     LegendNANA

Notes on Data Quality.

Legend

  • E = Estimated
  • M = Missing
  • NA = Not Available*
  • [empty] = Indicates an unobserved value
Date modified: